Regional Weather Roundup
Issued by NWS Charleston, WV

Home | Current Version | Previous Version | Graphics & Text | Print | Product List | Glossary On
Versions: 1 2 3 4 5 6 7 8 9 10 11 12 13 14 15 16 17 18 19 20 21 22 23 24 25 26 27 28 29 30 31 32 33 34 35 36 37 38 39 40 41 42 43 44 45 46 47 48 49 50
000
ASUS41 KRLX 141210
RWRRLX
West Virginia Regional Weather Roundup
National Weather Service Charleston WV
700 AM EST SUN FEB 14 2016

Note: "fair" indicates few or no clouds below 12,000 feet with no
significant weather and/or obstructions to visibility.

WVZ003-141300-
Northern Panhandle of West Virginia

CITY           SKY/WX    TMP DP  RH WIND       PRES   REMARKS
WHEELING         N/A      1  -3  83 SE5       30.45R WCI  -9
$$

WVZ009-141300-
Northwest West Virginia

CITY           SKY/WX    TMP DP  RH WIND       PRES   REMARKS
PARKERSBURG      N/A     -2  -8  76 CALM      30.51S
$$

WVZ006-141300-
Western West Virginia

CITY           SKY/WX    TMP DP  RH WIND       PRES   REMARKS
HUNTINGTON       N/A     10   4  76 CALM      30.49R
$$

WVZ015-141300-
West Central West Virginia

CITY           SKY/WX    TMP DP  RH WIND       PRES   REMARKS
CHARLESTON       N/A      4   0  83 CALM      30.47S
$$

WVZ022-031-141300-
North Central West Virginia

CITY           SKY/WX    TMP DP  RH WIND       PRES   REMARKS
CLARKSBURG       N/A      2  -6  69 CALM      30.45R
MORGANTOWN     NOT AVBL
$$

WVZ025-035-042-045-141300-
Southern West Virginia

CITY           SKY/WX    TMP DP  RH WIND       PRES   REMARKS
BECKLEY          N/A     -2  -8  76 SE3       30.32S
LOGAN            N/A      9   0  66 CALM      30.40R
BLUEFIELD        N/A      2  -7  66 SE3       30.29S
LEWISBURG        N/A      0  -6  76 CALM      30.36R
$$

WVZ047-141300-
Northern Mountains of West Virginia

CITY           SKY/WX    TMP DP  RH WIND       PRES   REMARKS
ELKINS         CLOUDY    -2  -8  76 CALM      30.38R
$$

WVZ052-141300-
Eastern Panhandle of West Virginia

CITY           SKY/WX    TMP DP  RH WIND       PRES   REMARKS
MARTINSBURG      N/A     10  -4  53 W12       30.50R WCI  -5
PETERSBURG       N/A     10   0  65 CALM      30.49R
$$



USA.gov is the U.S. government's official web portal to all federal, state and local government web resources and services.